Location: Bosmont
(49.7318°N, 3.8587°E)
Time: 22:24:50
(UTC+00:00)

XW-2F - Visible Passes

Search period start: 01 December 2023 00:00
Search period end: 11 December 2023 00:00
Orbit: 400 x 406 km, 97.4° (Epoch: 01 December)

Date Brightness Start Highest point End Pass type
(mag) Time Alt. Az. Time Alt. Az. Time Alt. Az.
02 Dec ? 06:12:09 10° NE 06:14:15 16° E 06:16:19 10° SE visible
04 Dec ? 06:05:10 10° ENE 06:06:47 13° E 06:08:25 10° ESE visible
05 Dec ? 06:45:56 10° NNE 06:48:56 42° E 06:51:54 10° S visible
06 Dec ? 05:57:51 10° ENE 05:58:34 11° E 05:59:17 10° ESE visible
07 Dec ? 06:37:31 10° NNE 06:40:22 32° E 06:43:12 10° SSE visible
09 Dec ? 06:28:24 10° NE 06:31:02 24° E 06:33:38 10° SSE visible
